Content
SEND FEEDBACK

Daily
Averages
Monthly
Summary
South Korea

INJE, SOUTH KOREA


Home > Asia > South Korea
Elevation: 656 feet     Latitude: 38 01N     Longitude: 128 10E

WEATHER
 
SELECT A DAY
Number of Records: 107,342;   Date Range: 2/28/02 - 9/20/14
 
SHARE

PRINT THIS DATA

[ ← Previous Day ]
WEATHER ALMANAC - JANUARY 31, 2013
[ Next Day → ]
[ °C ]   °F
Weather ElementAverageHighLow
Temperature39.6 °F46.4 °F (3:00 pm)32 °F (7:00 am)
Dewpoint34.9 °F39.2 °F (2:00 pm)32 °F (7:00 am)
Humidity84.2 %100 % (1:00 am)66 % (10:00 pm)
Barometer30.39 in30.45 in (8:00 am)30.30 in (11:00 pm)
Wind Speed4.7 mph6.9 mph (2:00 pm)
Weather ElementAverage
Visibility2.4 mi
Wind DirectionSSW (189.1 °)

Weather ElementTotal
Precipitation---
Heating Degree Days25.8 (Base 65)
Averaged from 23 records on January 31, 2013
WEATHER CONDITIONS BREAKOUT
WIND DIRECTION BREAKOUT
WEATHER BY HOUR - JANUARY 31, 2013
[ °C ]   °F
Local TimeTemperatureDewpointHumidityBarometerVisibilityWind DirectionWind SpeedGust SpeedPrecipitationEventsConditions
1:00 AM33.8 °F33.8 °F100 %30.42 in1.4 miWSW (240°)4.6 mph
2:00 AM33.8 °F33.8 °F100 %30.42 in1.4 miWSW (240°)5.8 mph
3:00 AM35.6 °F33.8 °F93 %30.42 in1.3 miWest (270°)3.5 mph
4:00 AM35.6 °F33.8 °F93 %30.42 in1.5 miWSW (250°)4.6 mph
5:00 AM33.8 °F33.8 °F100 %30.42 in0.8 miWSW (240°)5.8 mph
6:00 AM33.8 °F33.8 °F100 %30.42 in0.9 miSW (220°)5.8 mph
7:00 AM32.0 °F32.0 °F100 %30.42 in0.9 miSSW (210°)3.5 mph
8:00 AM32.0 °F32.0 °F100 %30.45 in1.6 miSouth (190°)4.6 mphScattered Clouds
9:00 AM35.6 °F33.8 °F93 %30.45 in1.9 miSouth (180°)4.6 mphPartly Cloudy
10:00 AM41.0 °F33.8 °F76 %30.42 in3.7 miSSE (160°)3.5 mph
11:00 AM41.0 °F35.6 °F81 %30.42 in3.7 miEast (100°)3.5 mph
12:00 PM44.6 °F37.4 °F76 %30.42 in3.7 miESE (110°)2.3 mph
1:00 PM44.6 °F37.4 °F76 %30.39 in3.7 miESE (120°)4.6 mph
2:00 PM44.6 °F39.2 °F81 %30.36 in3.7 miESE (120°)6.9 mph
3:00 PM46.4 °F39.2 °F76 %30.36 in3.7 miSE (130°)5.8 mph
4:00 PM46.4 °F39.2 °F76 %30.36 in3.7 miSE (130°)4.6 mph
5:00 PM44.6 °F39.2 °F81 %30.36 in3.1 miSE (130°)4.6 mphMist
6:00 PM42.8 °F37.4 °F81 %30.36 in3.1 miSouth (180°)4.6 mphMist
7:00 PM41.0 °F33.8 °F76 %30.36 in3.1 miSW (230°)6.9 mphMist
8:00 PM41.0 °F33.8 °F76 %30.36 in1.9 miSSW (210°)2.3 mph
9:00 PM41.0 °F32.0 °F70 %30.36 in1.9 miSSW (200°)6.9 mph
10:00 PM42.8 °F32.0 °F66 %30.33 in1.9 miSW (230°)2.3 mph
11:00 PM42.8 °F32.0 °F66 %30.30 in1.9 miWest (260°)5.8 mph
Hourly data recorded from RKNY, located miles away from Inje, South Korea







STORIES FROM OUR PARTNERS